Location: B?jaj?g
(11.7167°N, 92.6667°E)
Time: 23:22:07
(UTC+00:00)

CZ-4B R/B - Pass Details

Date: 18 September 2020
Orbit: 390 x 462 km, 97.6° (Epoch: 30 October)

Event Time Altitude Azimuth Distance (km) Brightness Sun altitude
Rises 22:20:11 0° 152° (SSE) 2,275 5.3 -20.0°
Reaches altitude 10° 22:22:16 10° 141° (SE) 1,424 4.4 -19.5°
Maximum altitude 22:24:59 30° 77° (ENE) 736 3.2 -18.8°
Drops below altitude 10° 22:27:44 10° 14° (NNE) 1,443 4.2 -18.1°
Sets 22:29:51 0° 3° (N) 2,311 5.1 -17.6°
